Location: ???????
(60.4260°N, 46.9069°E)
Time: 05:45:25
(UTC+00:00)

Okean 1-7 - Pass Details

Date: 30 March 2020
Orbit: 590 x 620 km, 82.5° (Epoch: 05 June)

Event Time Altitude Azimuth Distance (km) Brightness Sun altitude
Rises 00:57:35 0° 184° (S) 2,864 6.2 -10.7°
Reaches altitude 10° 00:59:47 10° 182° (S) 1,969 5.4 -10.5°
Maximum altitude 01:04:07 68° 100° (E) 669 3.4 -10.0°
Drops below altitude 10° 01:08:31 10° 18° (NNE) 1,998 6.3 -9.5°
Sets 01:10:46 0° 16° (NNE) 2,911 7.2 -9.3°
